RH
65 66 68 69 70 69 68 67 67 66 67 69 68 65 65 63 61 17 11 30 39 44 42 16 18 22 24 28 32 29 25 26 22 23 21 31 32 40 41 40 40 38 34 26 27
65 65 67 69 70 69 69 68 66 67 68 68 68 61 62 66 26 16 20 38 40 42 18 18 17 22 21 27 30 27 22 18 21 22 24 32 32 38 42 42 42 36 26 25 26
68 67 67 68 70 69 68 68 66 67 66 66 67 66 64 50 12 10 30 37 37 27 19 20 21 23 25 26 29 30 20 23 23 24 29 32 38 42 44 47 41 36 32 29 29
74 71 69 69 69 69 68 66 66 65 65 64 66 66 66 26 19 9 38 36 32 19 20 20 21 23 24 23 26 26 26 26 31 30 35 42 46 46 47 43 31 33 33 31 30
80 76 72 70 69 70 69 66 65 64 63 62 63 64 32 15 11 12 34 25 17 19 21 22 21 22 23 24 27 30 31 32 31 32 34 42 45 44 52 37 37 31 26 28 31
84 81 77 73 72 72 70 68 63 63 65 61 58 61 24 24 13 12 15 18 17 19 22 21 24 24 23 26 31 30 34 31 31 33 35 45 53 58 50 42 34 25 24 25 31
86 85 82 78 75 72 71 65 61 64 66 58 53 38 26 19 12 13 17 19 17 19 23 24 24 23 24 29 28 30 31 29 31 38 47 55 68 64 47 40 30 25 22 26 31
91 90 88 83 77 75 72 62 66 72 68 54 54 28 20 11 11 19 17 16 17 18 23 26 28 29 29 30 28 32 33 31 32 46 58 50 34 52 47 32 35 28 24 27 30
92 92 90 86 82 77 71 64 67 58 61 52 28 22 20 23 13 18 32 33 24 28 30 30 34 37 30 26 22 31 21 19 21 41 56 54 48 55 47 36 38 36 29 35 45
95 94 93 88 82 76 70 63 53 41 38 32 17 26 17 15 23 22 20 37 43 41 37 29 35 34 29 26 32 13 16 24 25 34 45 47 52 42 47 44 54 42 43 72 76
92 95 94 90 78 63 48 38 46 45 34 48 37 29 17 12 17 20 26 24 28 32 50 31 30 35 20 25 30 28 29 28 24 31 42 40 45 42 46 50 50 42 69 75 76
91 94 96 92 87 55 43 48 42 50 65 43 26 25 14 14 20 25 20 26 22 23 32 31 34 22 26 32 32 30 27 24 28 36 36 37 46 80 55 62 64 88 67 74 75
90 93 97 94 69 51 47 53 52 48 76 66 20 19 16 16 22 25 24 27 23 26 25 27 25 27 28 34 31 26 28 31 33 33 41 58 72 79 54 44 37 30 44 72 78
94 94 98 83 89 53 55 63 64 66 99 64 27 18 16 22 25 25 26 31 28 23 22 22 27 28 27 24 30 32 37 40 43 50 70 52 75 67 54 70 22 26 44 73 80
95 97 89 89 80 84 90 89 90 94 100 39 23 16 21 22 23 32 30 30 29 25 28 27 24 26 23 26 32 33 43 52 57 63 65 69 84 57 43 44 31 34 44 62 79
91 91 89 93 93 93 89 91 96 99 100 37 20 19 20 35 30 33 31 31 35 33 26 27 33 30 33 35 36 40 52 52 52 69 92 82 73 45 54 70 49 52 47 57 79
89 88 89 87 99 94 94 94 100 100 66 52 31 27 31 52 37 47 92 82 54 71 68 32 28 33 36 29 39 35 51 77 77 87 74 63 53 72 57 54 72 78 68 68 82
85 84 87 92 96 93 97 97 100 85 76 51 35 48 54 28 27 29 40 53 51 65 59 38 50 33 35 35 40 45 45 62 48 50 36 45 60 53 44 46 69 71 76 59 75
80 89 91 92 94 95 97 100 93 83 64 60 69 90 74 40 38 64 38 41 46 84 73 60 28 40 37 37 36 41 60 55 68 67 39 24 27 32 35 24 40 58 74 83 80
91 85 94 86 93 97 100 95 72 66 54 63 100 93 96 48 57 71 71 47 60 51 58 73 56 36 44 38 42 42 44 58 67 55 43 18 22 24 37 52 51 65 84 86 82
90 87 81 80 94 96 100 82 76 69 75 89 92 98 98 66 48 83 84 57 49 58 52 62 72 63 44 40 38 46 60 61 54 64 50 26 28 61 64 73 81 78 82 87 90
91 97 83 87 98 100 99 80 84 80 88 98 99 99 100 92 93 73 59 61 48 46 63 50 76 57 45 51 52 49 42 43 43 53 69 55 28 72 73 79 81 82 81 84 86
94 96 83 90 100 99 85 91 100 95 97 100 100 99 99 89 100 73 46 59 53 49 70 71 69 62 71 72 54 55 50 51 55 62 63 47 24 46 47 64 73 86 82 85 87
93 100 99 99 99 99 100 100 100 94 98 96 98 87 86 92 91 96 58 61 58 78 58 52 68 62 39 58 66 71 74 50 52 39 60 42 33 32 28 63 68 80 84 86 86
95 98 82 100 100 100 100 100 98 100 100 98 95 93 91 98 92 93 81 76 62 74 89 65 58 59 32 34 49 52 72 79 75 39 41 47 52 40 51 73 80 90 83 83 86
98 96 94 98 94 100 100 100 99 100 100 93 100 89 97 99 96 95 92 83 63 67 81 79 58 48 50 46 46 51 44 58 70 54 39 47 54 43 57 61 70 85 85 85 86
92 89 90 99 100 100 96 98 100 100 100 98 94 98 95 96 96 58 92 73 54 80 87 77 72 57 52 49 68 69 73 70 65 64 46 35 34 42 52 47 66 80 84 87 88
Wind_Speed
8 8 8 9 10 11 11 12 12 12 12 13 12 12 11 11 12 2 2 6 8 11 10 9 2 1 1 3 2 1 4 5 2 4 3 8 7 3 1 4 4 4 5 9 14
7 9 9 9 10 11 11 12 12 12 12 12 12 11 11 11 4 2 3 9 8 9 6 7 5 3 1 2 1 3 4 1 1 1 1 8 6 6 5 5 6 6 6 11 15
7 8 8 9 10 11 11 12 12 11 11 11 10 11 11 9 4 3 8 9 6 4 1 2 3 3 1 0 1 1 3 4 5 3 2 5 5 4 5 8 4 5 12 17 18
7 8 9 9 10 11 11 11 11 11 10 10 10 11 12 5 6 2 11 7 4 3 0 2 1 2 1 1 1 4 3 2 3 4 4 4 4 4 8 1 4 5 10 13 17
8 8 8 9 10 11 12 12 12 11 10 9 8 9 5 4 2 7 11 5 2 1 6 3 5 2 2 2 2 4 3 4 1 2 3 5 6 6 7 6 0 7 10 13 15
9 9 9 9 10 12 13 13 13 11 9 7 5 5 2 6 2 7 7 2 6 2 5 5 3 1 2 1 3 3 3 3 2 3 3 5 4 3 3 7 5 7 11 14 17
10 9 9 9 9 11 13 14 14 12 10 5 2 0 3 4 1 5 3 2 3 2 3 3 2 2 1 2 1 2 6 4 5 4 2 2 6 9 5 3 5 10 13 16 19
11 10 9 8 9 10 13 16 14 12 9 3 3 2 3 2 2 5 4 1 2 2 2 4 4 3 2 1 2 2 3 4 4 5 4 3 3 4 8 4 7 12 14 18 21
12 12 11 9 8 9 12 16 14 5 4 4 3 2 1 4 3 2 6 4 4 3 3 3 3 2 3 3 4 3 4 5 2 4 4 8 5 4 8 4 9 12 16 18 21
12 14 12 11 6 7 12 15 2 3 4 4 2 4 4 1 1 2 2 3 1 1 2 2 2 3 3 3 4 2 4 3 7 2 6 9 14 9 9 8 8 12 15 15 17
13 14 15 11 4 4 6 2 4 5 4 5 4 4 3 1 2 1 2 2 1 1 3 2 5 4 3 2 1 1 4 9 7 2 5 8 8 9 8 10 8 15 16 17 19
15 15 16 11 6 1 1 1 1 4 6 1 1 3 0 2 4 0 6 3 2 2 3 4 5 3 4 3 2 2 7 7 4 2 5 8 12 7 6 4 4 7 14 17 21
17 14 7 12 8 3 3 2 2 2 5 2 1 1 0 2 2 1 5 1 2 4 6 7 3 4 3 2 3 5 6 3 5 7 3 8 3 3 2 5 8 15 16 14 18
17 12 9 13 4 3 3 2 3 3 3 4 4 2 2 1 3 1 2 2 3 3 2 2 1 2 3 2 1 4 2 4 8 5 4 5 3 3 3 7 13 19 19 18 19
16 7 15 0 6 2 3 3 2 2 5 4 3 2 1 4 3 3 1 2 2 2 4 3 2 1 1 2 0 3 3 4 3 1 4 3 4 5 3 10 19 21 22 21 21
18 16 6 4 3 2 7 5 2 1 4 2 1 1 3 1 2 0 1 1 2 2 1 2 1 1 2 1 1 4 3 3 1 1 4 3 3 5 5 6 17 20 21 23 22
11 16 7 3 2 3 3 2 1 4 0 0 1 2 3 2 2 1 1 2 1 3 2 4 2 3 2 1 2 2 3 3 3 4 1 3 5 4 4 4 9 15 20 21 20
12 8 9 8 4 2 2 2 4 1 4 2 2 2 5 1 1 1 2 3 2 3 1 4 4 1 2 3 2 2 2 2 6 4 4 3 3 4 2 3 6 9 12 18 21
2 2 3 5 6 4 1 2 3 2 2 3 3 3 2 2 3 3 3 2 1 3 3 2 3 3 5 2 2 2 1 1 1 2 4 1 2 3 3 7 13 15 16 18 21
1 3 3 8 6 3 2 3 3 1 2 1 2 3 3 2 3 1 2 2 3 1 0 1 2 1 4 1 7 2 5 2 1 4 5 3 1 5 14 17 17 17 17 18 20
1 1 3 7 3 2 3 5 3 3 3 1 3 3 4 2 4 3 2 3 1 3 1 2 2 3 2 2 1 3 2 2 2 3 4 5 4 2 7 10 12 14 13 15 18
1 0 3 4 1 1 2 3 2 1 2 2 2 2 3 5 5 4 3 1 3 4 3 2 1 3 2 3 1 1 1 2 3 2 1 3 1 1 4 6 7 11 12 13 14
2 1 2 3 2 1 3 4 2 2 3 3 2 2 2 4 4 5 2 2 3 3 2 4 2 2 3 3 2 4 3 3 3 0 4 3 4 2 4 4 5 8 13 13 15
2 1 1 2 1 2 3 3 3 0 2 2 3 2 2 4 2 2 5 2 3 1 1 3 1 3 3 3 3 3 4 5 3 3 5 5 3 1 6 6 8 9 11 13 14
1 3 1 2 3 3 1 1 3 3 3 3 3 9 6 4 3 5 5 3 3 6 1 2 3 2 4 2 3 3 4 8 8 2 5 3 4 6 5 4 6 6 10 12 15
4 3 0 1 2 4 5 3 3 1 3 4 6 3 8 6 4 5 6 5 4 5 4 1 1 1 3 2 5 7 9 9 8 5 11 7 7 6 2 2 3 6 8 11 13
2 2 1 4 3 3 4 4 4 2 4 3 5 2 6 5 4 3 3 5 1 4 7 4 4 3 2 0 4 8 7 13 6 7 4 4 4 6 2 2 2 5 7 9 11
Wind_Direction
346 346 347 350 343 341 341 342 345 343 339 334 331 332 328 332 321 254 52 338 320 326 330 318 251 350 143 88 71 200 224 240 257 196 94 149 184 139 77 178 204 198 284 326 320
337 338 338 341 339 338 339 343 345 344 340 335 330 332 330 337 303 117 12 337 332 355 324 338 336 335 138 98 111 245 239 56 71 126 139 174 212 171 204 205 220 244 275 323 325
325 324 327 334 337 336 337 339 341 341 340 336 327 328 328 313 252 86 334 333 332 351 306 297 273 283 178 343 29 159 277 145 147 141 131 175 209 183 232 236 235 309 321 328 329
303 313 323 330 332 332 331 333 336 337 339 339 330 327 326 270 318 51 334 335 358 358 295 335 281 267 275 228 120 235 153 171 126 161 168 196 135 216 225 272 111 326 319 315 322
296 301 313 321 326 324 324 326 329 334 335 332 332 338 315 280 34 6 341 343 26 128 53 50 34 346 308 324 285 257 180 174 138 148 213 160 219 255 231 176 301 326 318 325 324
281 292 303 309 316 317 320 322 322 322 326 322 333 329 305 295 65 349 340 344 29 46 52 57 72 53 63 341 298 330 263 215 210 212 195 223 220 217 201 174 290 319 332 332 328
265 274 281 290 302 311 315 316 315 315 305 303 324 255 247 320 87 14 25 43 341 11 93 56 356 250 210 192 256 286 285 259 212 187 176 191 225 227 165 187 299 327 337 334 329
248 251 257 267 288 304 308 307 310 304 281 244 147 220 287 117 248 14 5 46 83 93 98 73 30 72 4 290 230 253 243 270 146 168 142 190 280 158 177 241 316 333 336 334 332
249 242 243 247 262 294 303 305 313 318 208 172 191 273 307 133 235 12 9 333 312 80 125 129 89 128 187 240 243 203 275 249 241 201 152 220 297 170 196 244 319 333 336 331 328
263 249 237 236 245 298 311 307 304 166 149 173 145 257 160 345 327 331 4 346 286 231 151 173 111 200 187 221 276 318 286 260 269 148 221 244 260 253 232 253 310 331 335 324 325
326 275 237 221 217 341 329 332 239 196 208 280 330 272 291 47 173 42 348 297 227 190 189 161 241 241 326 226 173 325 275 270 275 301 280 268 279 286 288 245 316 340 332 327 321
321 309 246 181 175 109 236 271 349 352 289 149 262 237 357 359 267 31 326 250 248 275 207 186 236 96 108 153 213 238 277 279 264 249 267 298 293 318 263 249 328 312 326 324 319
315 318 248 151 153 150 135 120 111 268 262 175 175 206 133 286 259 320 339 72 272 254 239 270 77 146 191 173 264 249 256 285 297 313 264 303 239 330 251 274 303 341 338 328 333
314 298 156 130 131 137 107 83 354 300 268 176 188 130 178 216 234 24 30 330 186 282 237 279 121 196 188 221 231 286 96 301 286 311 326 348 301 168 274 300 351 344 346 337 340
337 291 141 110 107 109 129 78 360 273 265 94 134 43 101 262 1 123 57 204 245 217 238 98 193 152 235 56 234 321 311 292 292 312 309 144 249 110 337 334 346 341 339 342 336
48 72 71 47 58 99 148 144 248 127 250 82 73 326 268 193 234 142 261 194 29 240 218 85 90 44 65 47 250 322 255 233 118 206 235 139 301 134 350 327 325 330 342 345 329
49 46 40 9 58 152 184 93 213 241 100 202 235 208 260 246 228 262 31 302 234 242 189 175 137 106 39 278 176 284 290 294 236 203 357 178 256 27 310 294 328 322 332 334 333
67 59 53 46 12 255 246 34 215 151 208 143 181 217 264 180 199 243 245 246 160 269 231 251 191 17 45 41 333 27 315 285 289 317 2 186 241 97 308 317 340 325 326 340 344
357 49 55 360 341 310 139 181 222 217 57 198 206 242 203 233 271 271 226 269 69 220 259 231 144 123 64 77 304 102 256 23 268 192 256 62 157 212 270 1 354 350 345 351 342
70 92 25 332 331 282 82 254 263 236 176 103 249 246 256 197 260 260 218 114 156 260 275 190 236 130 127 194 63 4 124 227 173 300 289 124 264 11 344 343 349 345 350 345 336
286 80 21 336 282 38 242 244 287 46 11 267 267 231 238 237 244 194 269 130 161 162 226 191 271 113 190 195 116 169 166 70 84 322 310 314 107 56 316 331 326 329 344 341 333
296 130 26 330 190 347 243 257 351 312 50 246 278 258 222 195 218 230 241 73 156 170 189 183 237 239 55 100 28 294 257 256 261 136 49 323 40 9 328 326 308 324 343 340 340
95 53 36 317 209 210 261 275 279 232 214 171 265 261 353 235 255 205 181 88 142 205 205 188 205 250 174 159 193 241 162 127 115 270 203 275 66 205 321 19 358 331 345 349 343
150 279 63 37 97 233 253 248 265 90 281 218 255 138 208 234 249 255 197 144 156 250 124 228 193 259 316 63 99 196 194 197 240 233 143 239 334 158 353 16 352 357 348 351 352
192 235 290 187 228 200 177 262 222 274 221 240 212 226 199 224 208 230 168 166 194 177 59 289 250 201 279 230 208 259 193 188 204 208 242 82 260 327 356 19 322 323 347 358 359
158 187 168 218 159 164 196 220 263 236 203 235 243 319 201 240 215 208 164 190 197 161 174 217 222 177 271 201 239 264 232 209 217 241 258 257 277 206 74 77 320 354 4 2 358
129 124 169 172 161 190 193 227 198 148 223 276 251 223 229 235 115 82 96 66 116 177 178 180 179 185 252 149 292 266 217 187 183 212 168 183 94 166 141 90 49 360 11 1 352